Weather in Wadduwa

Sri Lanka     6°39′47″N   79°55′42″E
temp.,
°C
wind,
m/s
gust,
m/s
humid.,
%
clouds,
%
prec.,
mm/h
press.,
hPa
HPBL,
m
13 june, sun
sun1323:30+25sw369062 6.4 1011222
02:30+25sw2491100 3.0 1009174
05:30+24wsw139226 5.8 1009146
08:30+28wsw478132 2.2 1011827
11:30+29wsw5775100 4.8 10101028
14:30+28wsw5879100 3.3 1008948
17:30+27wsw488598 7.3 1009670
20:30+25wsw3890100 5.3 1011275
14 june, mon
mon1423:30+24wsw249196 10.3 1011149
02:30+24wsw259097 6.6 1009167
05:30+25wsw41089100 14.3 1010547
08:30+24n1389100 1.5 101293
11:30+27wsw3783100 2.6 1011703
14:30+27w3783100 0.3 1008706
17:30+27wsw378198 0.4 1008594
20:30+25sw2389100 0.3 1011111
15 june, tue
tue1523:30+24sw1392100 1.6 1011110
02:30+24wsw139399 1.6 1009107
05:30+24ssw1393100 3.1 100989
08:30+28wsw477912 1.1 1010889
11:30+30wsw576776 1.4 10091365
14:30+30wsw586680 0.3 10081362
17:30+27wsw477972 0.7 1008808
20:30+25sw248752 0.4 1010143
16 june, wed
wed1623:30+25sw2490100 1.4 1010145
02:30+25sw2589100 1.3 1009175
05:30+24s1392100 2.1 100989
08:30+27wsw4779100 1.5 1011827
11:30+30wsw476459 1.8 10101332
14:30+30sw576499 0.4 10091360
17:30+27wsw4779100 1.2 1010674
20:30+25sw248959 2.1 1011157
17 june, thu
thu1723:30+25ssw1391100 4.4 1012113
02:30+24s1293100 2.4 101076
05:30+24sse1394100 4.1 101088
08:30+28sw3577100 1.8 1011784
11:30+30wsw3563100 2.1 10111322
14:30+30wsw456283 0.1 10091343
17:30+28wsw3574100 0.5 1010390
20:30+26sw1287100 0.2 101155